Regional Weather Roundup
Issued by NWS Kansas City/Pleasant Hill, MO

Home | Current Version | Previous Version | Text Only | Print | Product List | Glossary On
Versions: 1 2 3 4 5 6 7 8 9 10 11 12 13 14 15 16 17 18 19 20 21 22 23 24 25 26 27
000
ASUS43 KEAX 200410
RWREAX

WEATHER ROUNDUP FOR EASTERN KANSAS AND NORTHWEST MISSOURI
NATIONAL WEATHER SERVICE KANSAS CITY/PLEASANT HILL MO
1000 PM CST MON FEB 19 2018

KSZ040-057-103>105-MOZ028-029-037-043-200500-
...KANSAS CITY METROPOLITAN AREA...

CITY           SKY/WX    TMP DP  RH WIND       PRES   REMARKS
K.C. INTL      CLOUDY    30  28  92 N7        29.82F FOG     WCI  23
K.C. DOWNTOWN  CLOUDY    33  29  85 N7        29.82F WCI  27
LEES SUMMIT    CLOUDY    33  32  96 NE8       29.82S FOG     WCI  26
OLATHE - IXD   CLOUDY    31  30  96 N7        29.81F FOG     WCI  24
OLATHE - OJC   CLOUDY    31  31 100 NE8       29.79F FOG     WCI  23
LAWRENCE       CLOUDY    30  28  92 N8        29.83F FOG     WCI  22

$$

MOZ001>008-011>017-020>025-030>033-038>040-044>046-053-054-200500-
...NORTHERN AND CENTRAL MISSOURI...

CITY           SKY/WX    TMP DP  RH WIND       PRES   REMARKS
ST. JOSEPH     CLOUDY    28  28 100 N6        29.85F FOG     WCI  22
MOSBY          CLOUDY    32  32 100 NW5       29.84S FOG     WCI  27
WARRENSBURG    DRIZZLE   34  34 100 N5        29.82S WCI  30
WHITEMAN AFB   TSTM      37  36  93 N6        29.78S VSB 1   WCI  33
CLINTON        LGT RAIN  39  39 100 NE6       29.81F WCI  35
SEDALIA        HVY RAIN  41  41 100 NW8       29.83S FOG
WARSAW         NOT AVBL
CHILLICOTHE      N/A     35  33  92 NW5       29.84S WCI  31
KIRKSVILLE     RAIN      39  39 100 NW3       29.82S FOG

$$

MOZ041-047>049-056>058-063>065-088>090-097-200500-
...EASTERN AND SOUTHERN MISSOURI...

CITY           SKY/WX    TMP DP  RH WIND       PRES   REMARKS
ST. LOUIS INTL LGT RAIN  68  58  70 S17G28    29.88R
SPIRIT OF STL  LGT RAIN  68  59  73 S12G23    29.88R
COLUMBIA       LGT RAIN  62  60  93 S17G28    29.81R
JEFFERSON CITY RAIN      64  59  83 SE12      29.81R
ROLLA          CLOUDY    64  57  78 S12G24    29.86F
OSAGE BEACH    LGT RAIN  63  59  88 S10       29.82F
SPRINGFIELD    CLOUDY    65  58  78 S16       29.81R
BRANSON        MOCLDY    66  55  68 SE16G24   29.84F
JOPLIN         CLOUDY    55  55 100 W8        29.79R
WEST PLAINS    MOCLDY    66  58  75 S14       29.92S

$$

IAZ060-094-KSZ022-034>040-054-083-096-NEZ052-066-093-200500-
...KANSAS...SOUTHEAST NEBRASKA AND IOWA...

CITY           SKY/WX    TMP DP  RH WIND       PRES   REMARKS
TOPEKA         CLOUDY    29  27  92 N7        29.82F FOG     WCI  22
MANHATTAN      CLOUDY    26  23  88 N6        29.85R FOG     WCI  19
EMPORIA        CLOUDY    29  27  92 N10       29.79F FOG     WCI  20
CHANUTE        LGT RAIN  35  35 100 NE8       29.79S FOG     WCI  29
WICHITA        FRZ DRZL  30  29  96 N10       29.79R FOG     WCI  21
OMAHA          CLOUDY    23  20  88 N12       29.85F WCI  12
LINCOLN        FLURRIES  21  18  88 N10       29.87R WCI  10
FALLS CITY     CLOUDY    24  23  96 N9        29.84F FOG     WCI  14
LAMONI         CLOUDY    29  27  92 NW10      29.81S FOG     WCI  20
DES MOINES     FLURRIES  28  26  92 NW10      29.83S WCI  19

$$





USA.gov is the U.S. government's official web portal to all federal, state and local government web resources and services.